Find Starlink 5352

NORAD ID: 56426 Int'l Des: 2023-061 Owner: SPXS Country: US Constellation: starlink operational
LEOCIRCULAR

当前视图

正在加载3D地球...

About Starlink 5352

Starlink 5352 (NORAD 56426) is a starlink constellation satellite (v1.5) launched May 4, 2023 by SPXS of US. It operates in LEO, CIRCULAR orbit with a mass of 305.00 kg.

即将过境

Passes for default location (London). Set your location on the main map for personalized predictions.

高度历史

Loading altitude history...

两行轨道根数

1 56426U 23061BE 26255.22318117 .00001361 00000-0 59001-4 0 9990
2 56426 43.0013 206.4341 0001123 249.3383 110.7348 15.27566406185487
Epoch: Sep 12, 2026 • Age: 12 hours

当前状态

高度 489.0 km
远地点 / 近地点 N/A
速度 7.62 km/s
星下点 -26.00°S, 163.76°E
发射日期 May 4, 2023
运行时间 3.3 years
类型 internet

技术详情

分类 Payload
质量 305.00 kg
干质量 290.00 kg
总质量 305.00 kg
长度 0.20 m
直径 2.80 m
跨度 9.00 m
形状 Box + pan
制造商 SPXS
平台类型 Starlink
阶段状态 In Orbit
所有者/国家 SPXS/US

Most Searched